Left ArrowRight Arrow

34.74481, -87.66753

Hourly Observations for July 22, 2015

Temp ( °F °C ) Dew Point ( °F °C ) Humidity (%) Winds ( mph kmh ) Pressure ( in mb ) Visibility ( mi km ) Precip ( " mm )
12:53 am 00:53 Clear 75 23.9 72 22.2 90 90 Calm 29.90 1012 10 16 0.00 0.00
1:53 am 01:53 Clear 75 23.9 72 22.2 90 90 SW 3 6 29.90 1012 10 16 0.00 0.00
2:53 am 02:53 Clear 74 23.3 72 22.2 94 94 Calm 29.89 1012 10 16 0.00 0.00
3:53 am 03:53 Mostly Clear 74 23.3 71 21.7 91 91 Calm 29.90 1012 10 16 0.00 0.00
4:12 am 04:12 Mostly Cloudy 73 22.8 71 21.7 94 94 SSE 3 6 29.88 1012 10 16 0.00 0.00
4:26 am 04:26 Partly Cloudy 73 22.8 71 21.7 94 94 Calm 29.88 1012 10 16 0.00 0.00
4:53 am 04:53 Mostly Clear 73 22.8 71 21.7 94 94 Calm 29.91 1013 10 16 0.00 0.00
5:53 am 05:53 Mostly Cloudy 74 23.3 72 22.2 94 94 Calm 29.92 1013 10 16 0.00 0.00
6:53 am 06:53 Cloudy 75 23.9 72 22.2 90 90 S 3 6 29.95 1014 10 16 0.00 0.00
7:24 am 07:24 Cloudy 76 24.4 73 22.8 91 91 WSW 3 6 29.94 1014 10 16 0.00 0.00
7:39 am 07:39 Cloudy 76 24.4 73 22.8 91 91 W 6 9 29.97 1015 10 16 0.00 0.00
7:53 am 07:53 Cloudy 77 25 73 22.8 88 88 W 7 11 29.96 1015 10 16 0.00 0.00
8:14 am 08:14 Partly Cloudy 78 25.6 73 22.8 85 85 WSW 6 9 29.94 1014 10 16 0.00 0.00
8:53 am 08:53 Sunny 79 26.1 72 22.2 79 79 SW 3 6 29.94 1014 10 16 0.00 0.00
9:53 am 09:53 Mostly Sunny 82 27.8 73 22.8 74 74 Calm 29.95 1014 10 16 0.00 0.00
10:53 am 10:53 Mostly Cloudy with Light Rain 81 27.2 74 23.3 79 79 Calm 29.96 1015 10 16 0.06 1.52
11:53 am 11:53 Mostly Sunny 86 30 74 23.3 67 67 WNW 10 17 29.95 1014 10 16 0.00 0.03
12:53 pm 12:53 Sunny 89 31.7 72 22.2 57 57 W 8 13 29.93 1014 10 16 0.00 0.00
1:53 pm 13:53 Sunny 90 32.2 71 21.7 54 54 NW 7 11 29.93 1013 10 16 0.00 0.00
2:53 pm 14:53 Sunny 91 32.8 72 22.2 54 54 N 8 13 29.92 1013 10 16 0.00 0.00
3:53 pm 15:53 Sunny 92 33.3 71 21.7 51 51 NNW 7 11 29.90 1013 10 16 0.00 0.00
4:53 pm 16:53 Sunny 93 33.9 72 22.2 50 50 VRB 7 11 29.88 1012 10 16 0.00 0.00
5:53 pm 17:53 Sunny 89 31.7 72 22.2 57 57 NW 7 11 29.89 1012 10 16 0.00 0.00
6:53 pm 18:53 Sunny 86 30 73 22.8 65 65 NW 5 7 29.91 1013 10 16 0.00 0.00
7:15 pm 19:15 Partly Cloudy with Nearby Thunderstorms 86 30 73 22.8 65 65 WNW 6 9 29.91 1013 10 16 0.00 0.00
7:42 pm 19:42 Mostly Cloudy 83 28.3 72 22.2 70 70 SW 12 19 29.91 1013 10 16 0.00 0.00
7:51 pm 19:51 Partly Cloudy with Nearby Thunderstorms 82 28 70 21 66 66 SSW 7 11 29.91 1013 10 16 0.00 0.00
7:53 pm 19:53 Partly Cloudy with Nearby Thunderstorms 82 27.8 71 21.7 69 69 SSW 8 13 29.93 1013 10 16 0.00 0.03
8:06 pm 20:06 Partly Cloudy with Light Rain 79 26.1 71 21.7 77 77 WNW 3 6 29.94 1014 10 16 0.02 0.51
8:53 pm 20:53 Mostly Cloudy 77 25 73 22.8 88 88 NW 3 6 29.93 1014 10 16 0.03 0.76
9:53 pm 21:53 Clear 77 25 74 23.3 90 90 Calm 29.94 1014 10 16 0.00 0.00
10:53 pm 22:53 Partly Cloudy 77 25 71 21.7 82 82 Calm 29.96 1015 10 16 0.00 0.00
11:53 pm 23:53 Clear 76 24.4 72 22.2 88 88 Calm 29.95 1014 10 16 0.00 0.00

Powered by Vaisala Xweather